DW5724 Weather Reports


time (UTC)temp
C
wind
direction
speed
KPH
gust
KPH
rain 1hr
cm
rain 24hr
cm
rain mn
cm
humidity
%
barometer
mb
20260508184632 17 149 9.7 25.7 0.00 0.03 0.00 40 1015.6
20260508183137 16 223 14.5 20.9 0.00 0.03 0.00 32 1015.7
20260508181645 16 211 6.4 24.1 0.00 0.03 0.00 30 1015.7
20260508180137 16 219 9.7 24.1 0.00 0.03 0.00 35 1015.8
20260508174629 16 300 3.2 20.9 0.00 0.03 0.00 41 1015.9
20260508173135 16 218 11.3 24.1 0.00 0.03 0.00 45 1016.2
20260508171639 16 277 3.2 14.5 0.00 0.03 0.00 51 1016.4
20260508170142 16 223 6.4 11.3 0.00 0.03 0.00 46 1016.7
20260508164636 15 220 3.2 12.9 0.00 0.03 0.00 45 1016.9
20260508163140 15 49 6.4 12.9 0.00 0.03 0.00 41 1017.0
20260508161641 15 67 3.2 6.4 0.00 0.03 0.00 38 1017.1
20260508160141 15 336 3.2 8.0 0.00 0.03 0.00 40 1017.4
20260508154639 14 327 1.6 8.0 0.00 0.03 0.00 41 1017.6
20260508151636 13 349 1.6 11.3 0.00 0.03 0.00 41 1017.8
20260508150137 13 31 3.2 8.0 0.00 0.03 0.00 41 1018.1
20260508144645 12 64 1.6 12.9 0.00 0.03 0.00 40 1018.1
20260508143125 12 88 3.2 9.7 0.00 0.03 0.00 40 1018.1
20260508140133 11 54 3.2 9.7 0.00 0.03 0.00 49 1018.2
20260508134625 10 232 0.0 4.8 0.00 0.03 0.00 54 1018.2
20260508133130 10 117 0.0 3.2 0.00 0.03 0.00 60 1018.1
20260508131627 8 117 0.0 1.6 0.00 0.03 0.00 76 1017.9
20260508130128 6 117 0.0 3.2 0.00 0.03 0.00 94 1017.9
20260508124630 6 117 0.0 1.6 0.00 0.03 0.00 96 1017.9
20260508123140 5 117 0.0 1.6 0.00 0.03 0.00 96 1017.9
20260508121645 3 117 0.0 0.0 0.00 0.03 0.00 96 1017.7
20260508120142 2 117 0.0 0.0 0.00 0.03 0.00 95 1017.4
20260508114638 0 117 0.0 0.0 0.00 0.10 0.00 95 1017.4
20260508113126 0 117 0.0 0.0 0.00 0.10 0.00 93 1017.0
20260508111638 0 117 0.0 0.0 0.00 0.10 0.00 93 1016.8
20260508110135 0 117 0.0 0.0 0.00 0.10 0.00 93 1016.5
20260508104625 0 117 0.0 0.0 0.00 0.41 0.00 93 1016.4
20260508103138 0 117 0.0 0.0 0.00 0.41 0.00 93 1016.1
20260508101646 0 117 0.0 0.0 0.00 0.41 0.00 93 1015.8
20260508100135 0 117 0.0 0.0 0.00 0.41 0.00 93 1015.5
20260508094643 0 117 0.0 4.8 0.00 0.46 0.00 93 1015.3
20260508093133 1 117 0.0 0.0 0.00 0.46 0.00 93 1015.3
20260508090139 1 117 0.0 0.0 0.00 0.46 0.00 93 1015.0
20260508084656 2 117 0.0 0.0 0.00 0.46 0.00 93 1014.9
20260508083158 2 117 0.0 3.2 0.00 0.46 0.00 93 1014.9
20260508081639 2 117 0.0 1.6 0.00 0.46 0.00 93 1014.9
20260508074649 3 117 0.0 0.0 0.00 0.46 0.00 93 1014.8
20260508073155 3 117 0.0 1.6 0.00 0.46 0.00 93 1014.7
20260508071645 4 117 0.0 1.6 0.00 0.46 0.00 93 1014.5
20260508070128 5 117 0.0 1.6 0.00 0.46 0.00 94 1014.4
20260508061637 6 117 0.0 4.8 0.00 0.53 0.00 95 1014.5
20260508060135 6 268 0.0 1.6 0.00 0.53 0.00 95 1014.7
20260508054647 6 268 1.6 6.4 0.00 0.53 0.00 95 1014.9
20260508053126 6 242 1.6 3.2 0.00 0.53 0.00 95 1014.6
20260508051634 7 240 0.0 4.8 0.00 0.53 0.00 95 1014.5
20260508050151 7 244 3.2 11.3 0.00 0.53 0.00 95 1014.3
20260508044653 7 211 0.0 4.8 0.00 0.58 0.00 95 1014.2
20260508043139 7 34 1.6 9.7 0.00 0.58 0.00 95 1013.9
20260508041630 6 225 0.0 4.8 0.00 0.58 0.00 95 1013.8
20260508034656 6 265 1.6 4.8 0.00 0.61 0.58 95 1013.6
20260508033137 6 154 0.0 3.2 0.00 0.61 0.58 95 1013.7
20260508031634 6 154 0.0 3.2 0.00 0.61 0.58 94 1013.7
20260508030136 5 154 0.0 4.8 0.00 0.61 0.58 94 1013.6
20260508023148 5 206 0.0 1.6 0.00 0.66 0.58 94 1013.1
20260508021650 5 206 0.0 0.0 0.00 0.66 0.58 93 1013.2
20260508020138 5 206 0.0 1.6 0.00 0.66 0.58 93 1012.9
20260508014648 5 206 0.0 0.0 0.00 0.94 0.58 92 1012.4
20260508013128 5 206 0.0 0.0 0.00 0.94 0.58 92 1012.3
20260508010150 6 206 0.0 4.8 0.00 0.94 0.58 92 1011.7
20260508004639 6 206 0.0 1.6 0.00 0.99 0.58 92 1011.5
20260508003140 7 206 0.0 1.6 0.00 0.99 0.58 92 1011.3
20260508001614 7 206 1.6 3.2 0.00 0.99 0.58 93 1011.3
20260508000013 7 206 0.0 3.2 0.00 1.02 0.58 93 1011.4
20260507234520 7 206 0.0 3.2 0.00 1.02 0.58 93 1011.3
20260507233102 7 227 3.2 8.0 0.00 1.02 0.58 93 1011.3
20260507231501 7 311 1.6 9.7 0.00 1.02 0.58 93 1011.3
20260507230112 7 242 0.0 6.4 0.00 1.02 0.58 93 1011.3
20260507224515 7 197 3.2 9.7 0.00 1.02 0.58 94 1011.4
20260507223005 7 232 1.6 9.7 0.00 1.02 0.58 94 1011.1
20260507221516 7 215 4.8 9.7 0.00 1.02 0.58 95 1011.0
20260507220011 7 237 4.8 8.0 0.03 1.02 0.58 94 1010.8
20260507213018 7 229 4.8 11.3 0.03 1.02 0.58 94 1010.5
20260507211514 7 200 4.8 11.3 0.03 1.02 0.58 94 1010.5
20260507210111 7 220 4.8 9.7 0.00 0.99 0.56 94 1010.4
20260507204613 7 155 1.6 6.4 0.00 0.99 0.56 94 1010.1
20260507203003 7 340 1.6 11.3 0.00 0.99 0.56 94 1010.0
20260507201605 8 233 6.4 11.3 0.00 0.99 0.56 94 1009.9
20260507200029 8 236 4.8 9.7 0.00 0.99 0.56 95 1009.8
20260507194617 8 175 6.4 11.3 0.00 0.99 0.56 94 1009.4
20260507193019 8 223 4.8 11.3 0.00 0.99 0.56 95 1009.4
20260507191509 8 190 3.2 8.0 0.00 0.99 0.56 94 1009.3
20260507190110 8 243 3.2 8.0 0.00 0.99 0.56 94 1009.5